Overview Statistics Trail Chart Weather Telemetry Raw packets
 

This is the latest recevied weather packets stored in our database for station/object W5ALL-WX. If no packets are shown the sender has not sent any weather packets the latest 10 day(s).

<< 84 85 86 87 88 89 90 >>
Time Temp. Humidity Pressure Rain* Wind** Luminosity Snow
1777372326 13.33° C 19% 1014.3 hPa 0 mm - - -
1777372026 15° C 17% 1014.5 hPa 0 mm - - -
1777371726 15.56° C 15% 1014.5 hPa 0 mm - - -
1777371426 16.11° C 15% 1014.5 hPa 0 mm - - -
1777371126 16.11° C 14% 1014.5 hPa 0 mm - - -
1777370825 16.11° C 15% 1014.5 hPa 0 mm - - -
1777370525 16.11° C 15% 1014.5 hPa 0 mm - - -
1777370225 16.67° C 14% 1014.5 hPa 0 mm - - -
1777369925 17.78° C 13% 1014.5 hPa 0 mm - - -
1777369625 18.33° C 12% 1014.5 hPa 0 mm - - -
1777369325 18.33° C 12% 1014.5 hPa 0 mm - - -
1777369025 17.78° C 12% 1014.5 hPa 0 mm - - -
1777368601 17.78° C 12% 1014.3 hPa 0 mm - - -
1777368301 17.78° C 12% 1014.5 hPa 0 mm - - -
1777368007 17.78° C 12% 1014.3 hPa 0 mm - - -
1777367701 17.78° C 12% 1014.2 hPa 0 mm - - -
1777367401 17.78° C 12% 1014.1 hPa 0 mm - - -
1777367101 17.78° C 12% 1014.1 hPa 0 mm - - -
1777366801 17.78° C 13% 1014.1 hPa 0 mm - - -
1777366501 17.78° C 13% 1014.1 hPa 0 mm - - -
1777366201 17.78° C 13% 1014.2 hPa 0 mm - - -
1777365901 17.78° C 13% 1014.2 hPa 0 mm - - -
1777365601 17.78° C 12% 1014.2 hPa 0 mm - - -
1777365301 18.33° C 12% 1014.2 hPa 0 mm - - -
1777365005 18.33° C 12% 1014.1 hPa 0 mm - - -

* Rain latest hour (hover to see other rain measurements)
** Current wind speed in m/s (hover to see current wind gust speed)